Orbital Elements at Epoch 2455860.5 (2011-Oct-26.0) TDB
Reference: JPL 45 (heliocentric ecliptic J2000)
Element | Value | Uncertainty (1-sigma) | Units |
e | .4092921638289355 | 8.7878e-08 | |
a | 3.471809698675179 | 2.0327e-08 | au |
q | 2.05082519470213 | 3.0376e-07 | au |
i | 9.170617424610311 | 1.7311e-05 | deg |
node | 192.4200557547587 | 4.2352e-05 | deg |
peri | 46.6837131983796 | 7.0793e-05 | deg |
M | 341.2295966722326 | 3.0174e-05 | deg |
tp | 2455983.697926593761 (2012-Feb-26.19792659) | 0.00019775 | TDB |
period | 2362.829013276682 6.47 | 2.0751e-05 5.681e-08 | d yr |
n | .1523597340210266 | 1.3381e-09 | deg/d |
Q | 4.892794202648227 | 2.8647e-08 | au |
|
Additional Model Parameters
Parameter | Value | Uncertainty (1-sigma) |
A2 [EST] | -6.832566625367815E-10 | 1.082E-12 |
|
| | Orbit Determination Parameters
Additional Information
|